Location: Home
(42.5358°N, 72.7383°W)
Time: 19:07:50
(UTC-05:00)

Transit 4A - Pass Details

Date: 30 November 2021
Orbit: 863 x 981 km, 66.8° (Epoch: 23 January)

Event Time Altitude Azimuth Distance (km) Brightness Sun altitude
Rises 21:25:40 0° 253° (WSW) 3,464 - -55.2°
Reaches altitude 10° 21:28:42 10° 268° (W) 2,544 - -55.7°
Maximum altitude 21:33:14 23° 319° (NW) 1,838 - -56.5°
Drops below altitude 10° 21:37:54 10° 9° (N) 2,611 - -57.2°
Sets 21:41:03 0° 25° (NNE) 3,579 - -57.7°
